sat.trackr.live / text

‹ back to catalog

STARLINK-2221

NORAD 48571 · 2021-041U

PAYLOAD ACTIVE UNKNOWN

§ Identity

Operator
Country
US
Launch date
2021-05-15
Launch site
AFETR
Launch vehicle
Mass (kg)
RCS (m²)

Purposes: comms

External: N2YO · Heavens-Above · Gunter

§ Orbital elements

Epoch: 2026-09-04T01:02:41.926848Z

Period
94.01 min
Inclination
53.1605°
Eccentricity
0.0000984
Mean motion
15.31704336 rev/d
Perigee alt
470.1 km
Apogee alt
471.4 km
Semi-major
6,848.9 km
B*
6.2592e-5
RAAN
29.5568°
Arg perigee
94.0146°
Mean anomaly
266.0968°
Rev number
29,242

§ Raw data

STARLINK-22211 48571U 21041U   26247.04354082  .00001578  00000+0  62592-4 0  99982 48571  53.1605  29.5568 0000984  94.0146 266.0968 15.31704336292426

JSON: /api/v1/satellites/48571 · /tle

For live sub-satellite position, see the globe view (requires WebGL).

§ Visibility from observer

Set your observer location to see the next 7 days of passes ≥ 10°. The values pass through the URL so the page stays shareable.

No JS? Fill the form by hand. The geolocation button needs JavaScript.